This is the latest recevied weather packets stored in our database for station/object IK2ILW-6. If no packets are shown the sender has not sent any weather packets the latest 10 day(s).
| Time | Temp. | Humidity | Pressure | Rain* | Wind** | Luminosity | Snow |
|---|---|---|---|---|---|---|---|
| 1777808191 | 11.11° C | 56% | 1021.8 hPa | 0 mm | - | 874 W/m² | - |
| 1777807895 | 11.11° C | 56% | 1021.8 hPa | 0 mm | - | 545 W/m² | - |
| 1777807600 | 11.11° C | 55% | 1021.9 hPa | 0 mm | - | 691 W/m² | - |
| 1777807293 | 11.11° C | 54% | 1021.7 hPa | 0 mm | - | 492 W/m² | - |
| 1777807001 | 11.67° C | 54% | 1021.8 hPa | 0 mm | - | 554 W/m² | - |
| 1777806685 | 11.11° C | 55% | 1021.9 hPa | 0 mm | - | 700 W/m² | - |
| 1777806390 | 11.67° C | 48% | 1021.9 hPa | 0 mm | - | 605 W/m² | - |
| 1777806092 | 11.67° C | 49% | 1021.9 hPa | 0 mm | - | 737 W/m² | - |
| 1777805798 | 11.67° C | 49% | 1021.9 hPa | 0 mm | - | 879 W/m² | - |
| 1777805493 | 11.11° C | 47% | 1021.8 hPa | 0 mm | - | 940 W/m² | - |
| 1777805203 | 11.67° C | 50% | 1021.9 hPa | 0 mm | - | 926 W/m² | - |
| 1777804886 | 11.67° C | 50% | 1021.9 hPa | 0 mm | - | 888 W/m² | - |
| 1777804590 | 11.67° C | 53% | 1021.9 hPa | 0 mm | - | 895 W/m² | - |
| 1777803998 | 10.56° C | 58% | 1021.9 hPa | 0 mm | - | 886 W/m² | - |
| 1777803684 | 10° C | 52% | 1022 hPa | 0 mm | - | 861 W/m² | - |
| 1777803386 | 10.56° C | 52% | 1021.9 hPa | 0 mm | - | 881 W/m² | - |
| 1777803090 | 11.11° C | 55% | 1021.9 hPa | 0 mm | - | 870 W/m² | - |
| 1777802785 | 10.56° C | 49% | 1021.8 hPa | 0 mm | - | 868 W/m² | - |
| 1777802500 | 10° C | 52% | 1021.9 hPa | 0 mm | - | 860 W/m² | - |
| 1777802184 | 10.56° C | 55% | 1022 hPa | 0 mm | - | 831 W/m² | - |
| 1777801890 | 10° C | 51% | 1021.9 hPa | 0 mm | - | 858 W/m² | - |
| 1777801602 | 10.56° C | 54% | 1022 hPa | 0 mm | - | 865 W/m² | - |
| 1777801296 | 10.56° C | 54% | 1022 hPa | 0 mm | - | 846 W/m² | - |
| 1777800999 | 9.44° C | 53% | 1021.9 hPa | 0 mm | - | 835 W/m² | - |
| 1777800701 | 9.44° C | 48% | 1022 hPa | 0 mm | - | 765 W/m² | - |
* Rain latest hour (hover to see other rain measurements)
** Current wind speed in m/s (hover to see current wind gust speed)